Powrót do katalogu

STARLINK-4647

AktywnyŁącznośćVLEO
NORAD 53608·PAYLOAD·🇺🇸 United States

Wystrzelony Aug 28, 2022 z Cape Canaveral Space Force Station

Loading…

Następne Przeloty (najbliższe 24 godziny)

TLE

ŚwieżeSource: CelesTrak SupGP

Epoka: Sep 15, 2026, 02:36 UTC

1 53608C 22104W   26258.10881944 -.00002706  00000+0 -79949-4 0  2585
2 53608  53.1578  93.0400 0001121  85.1780 330.3105 15.34395496    18

Śledź STARLINK-4647 w czasie rzeczywistym z AllMySat

Download on the App Store